Regional Weather Roundup
Issued by NWS

Home | Current Version | Previous Version | Graphics & Text | Print | Product List | Glossary On
Versions: 1 2 3 4 5 6 7 8 9 10 11 12 13 14 15 16 17 18 19 20 21 22 23 24 25 26 27
000
ASUS45 KBOU 261307
RWRCO

WEATHER ROUNDUP FOR COLORADO
NATIONAL WEATHER SERVICE DENVER/BOULDER CO
700 AM MDT WED JUL 26 2017

NOTE: "FAIR" INDICATES FEW OR NO CLOUDS BELOW 12000 FEET WITH NO
SIGNIFICANT WEATHER AND/OR OBSTRUCTIONS TO VISIBILITY.

COZ001>005-013-030-031-261400-
...NORTHWEST COLORADO...

CITY           SKY/WX    TMP DP  RH WIND       PRES   REMARKS
CRAIG          CLOUDY    62  59  90 CALM      30.30S
HAYDEN         CLOUDY    61  55  82 CALM      30.32R
MEEKER         CLOUDY    62  59  90 CALM      30.31R
RABBIT EARS PA FOG       50  50 100 W9        30.55S VSB<1/4
STEAMBOAT SPGS CLOUDY    59  59  99 CALM      30.34R
WALDEN         CLOUDY    54  52  94 SE3       30.41R
$$

COZ006>008-011-261400-
...WEST CENTRAL VALLEYS...

CITY           SKY/WX    TMP DP  RH WIND       PRES   REMARKS
GRAND JUNCTION CLOUDY    67  66  97 SE6       30.22R
MONTROSE       FAIR      62  61  96 SE6       30.30R
EAGLE          CLOUDY    61  57  88 CALM      30.34R
RIFLE          RAIN      63  62  97 S3        30.27R FOG
DELTA          RAIN      64  62  91 CALM      30.26R
NUCLA          FAIR      61  57  88 E7        30.34R
$$

COZ017>023-064>068-261400-
...SOUTHWEST COLORADO...

CITY           SKY/WX    TMP DP  RH WIND       PRES   REMARKS
DURANGO        FAIR      57  53  86 N3        30.35R
CORTEZ         MOCLDY    59  58  96 NE3       30.31R
PAGOSA SPRINGS CLOUDY    58  57  96 CALM      30.43R
TELLURIDE      CLOUDY    56  52  87 CALM      30.51S
WOLF CREEK PAS FOG       45  45 100 SW7       30.74S VSB 1/2
$$

COZ009-010-012-014-032>034-037-058>063-261400-
...CENTRAL COLORADO...

CITY           SKY/WX    TMP DP  RH WIND       PRES   REMARKS
ASPEN          CLOUDY    58  55  90 CALM      30.39R
BUENA VISTA    CLOUDY    55  52  89 N3        30.42R
COPPER MTN     CLOUDY    54  45  71 CALM      30.67S
BERTHOUD PASS  HAZE      43  30  61 NW14      30.69S VSB 1/4
COTTONWOOD PAS LGT RAIN  57  48  72 N3        30.54R
GUNNISON       FAIR      56  53  90 CALM      30.43R
KREMMLING      RAIN      63  57  82 CALM      30.38R
LEADVILLE      CLOUDY    49  47  93 N3        30.49F
MONARCH PASS   CLOUDY    46  45  93 W23       30.78R
SALIDA         CLOUDY    58  55  90 CALM      30.45S
SUNLIGHT       CLOUDY    48  46  93 SW8       30.61R
WILKERSON PASS CLOUDY    50  43  76 W5        30.65R
$$

COZ069>075-261400-
...SAN LUIS VALLEY/SANGRE DE CRISTO MOUNTAINS...

CITY           SKY/WX    TMP DP  RH WIND       PRES   REMARKS
ALAMOSA        CLOUDY    55  55 100 N3        30.40R FOG
DEL NORTE      FAIR      54  54  97 W3        30.43S
LA VETA PASS   NOT AVBL
SAGUACHE         N/A    N/A N/A N/A MISG        N/A
$$

COZ035-036-038>040-261400-
...NORTHERN COLORADO FRONT RANGE...

CITY           SKY/WX    TMP DP  RH WIND       PRES   REMARKS
DENVER INTL AP CLOUDY    67  58  72 N8        30.24R
DMNS CITY PARK   N/A     67  57  70 NE3G14    30.25R
AURORA         PTSUNNY   64  59  83 N3        30.26R
FRONT RANGE AP CLOUDY    64  61  88 N7        30.26R
ERIE MUNI ARPT CLOUDY    66  63  90 CALM      30.23S
BOULDER MUN AP CLOUDY    68  57  68 CALM      30.24R
CENTENNIAL     PTSUNNY   64  59  83 NE5       30.27R
BROOMFIELD     CLOUDY    66  59  77 CALM      30.26S
FORT COLLINS   CLOUDY    68  60  75 N5        30.23R
LONGMONT       CLOUDY    68  62  80 CALM      30.24S
$$

COZ041-046-047-076>085-087-088-261400-
...PIKES PEAK/PALMER DIVIDE AND SOUTHERN FOOTHILLS...

CITY           SKY/WX    TMP DP  RH WIND       PRES   REMARKS
COLO. SPRINGS  PTSUNNY   66  58  75 N9        30.27S
A. F. ACADEMY  FAIR      60  57  88 N9        30.29S
SCHRIEVER AFB  FAIR      63  55  74 N12G21    30.27R
CHEYENNE MTN   FAIR      64  53  67 N7        30.27R
ELLICOTT       FAIR     N/A N/A N/A N12       30.26R
FALCON           N/A     61  54  77 NW13G20   30.32S
FORT CARSON    FAIR      64  57  76 N7        30.25R
LIMON          FAIR      64  59  83 NW13      30.21R
MONUMENT HILL  PTSUNNY   55  55 100 N6        30.35S
CANON CITY     SUNNY     64  61  88 MISG      30.23R
WALSENBURG     PTSUNNY   64  61  88 N5        30.27R
TRINIDAD       FAIR      64  56  75 W7        30.25R
$$

COZ042>045-048>051-090-091-261400-
...NORTHEAST COLORADO...

CITY           SKY/WX    TMP DP  RH WIND       PRES   REMARKS
GREELEY ARPT   FAIR      67  60  78 NW5       30.21R
AKRON          CLOUDY    67  62  84 N13       30.16R
BURLINGTON     FAIR      70  63  78 NW16G25   30.09R
WRAY           NOT AVBL
YUMA           CLOUDY    66  55  68 N13       30.11R
STERLING       FAIR      70  64  83 N7        30.12S
HOLYOKE        CLOUDY    72  64  78 N10       30.09R
FORT MORGAN    FAIR      67  57  71 NW6       30.19R
$$

COZ086-089-092>099-261400-
...SOUTHEAST COLORADO...

CITY           SKY/WX    TMP DP  RH WIND       PRES   REMARKS
PUEBLO         FAIR      67  61  81 W7        30.18R
LA JUNTA       FAIR      73  61  65 NW9       30.12S
LAMAR          FAIR      71  62  73 W7        30.05S
SPRINGFIELD      N/A     71  60  68 NW8       30.11R
$$




USA.gov is the U.S. government's official web portal to all federal, state and local government web resources and services.